N7SXG Weather Reports


time (UTC)temp
C
wind
direction
speed
KPH
gust
KPH
rain 1hr
cm
rain 24hr
cm
rain mn
cm
humidity
%
barometer
mb
20260504214558 22 173 17.7 35.4 0.00 0.00 0.00 55 1007.4
20260504213058 21 153 14.5 35.4 0.00 0.00 0.00 55 1007.4
20260504211605 22 150 11.3 30.6 0.00 0.00 0.00 54 1007.3
20260504210057 22 224 9.7 20.9 0.00 0.00 0.00 55 1007.1
20260504204602 21 229 12.9 38.6 0.00 0.00 0.00 55 1007.4
20260504203109 21 227 16.1 37.0 0.00 0.00 0.00 56 1008.2
20260504201559 21 248 16.1 33.8 0.00 0.00 0.00 55 1008.3
20260504200057 21 207 12.9 27.4 0.00 0.00 0.00 58 1008.2
20260504194555 20 219 14.5 41.8 0.00 0.00 0.00 58 1008.4
20260504193054 20 195 14.5 33.8 0.00 0.00 0.00 58 1008.5
20260504191605 21 178 16.1 41.8 0.00 0.00 0.00 58 1008.6
20260504190107 21 155 9.7 35.4 0.00 0.00 0.00 59 1008.7
20260504184553 21 135 14.5 35.4 0.00 0.00 0.00 58 1008.9
20260504183102 21 213 19.3 40.2 0.00 0.00 0.00 56 1008.9
20260504181558 22 186 16.1 38.6 0.00 0.00 0.00 53 1008.9
20260504180057 23 177 12.9 37.0 0.00 0.00 0.00 52 1008.3
20260504174557 23 213 12.9 38.6 0.00 0.00 0.00 54 1008.3
20260504173055 23 263 12.9 33.8 0.00 0.00 0.00 52 1008.3
20260504171558 22 126 12.9 30.6 0.00 0.00 0.00 52 1008.4
20260504140108 15 215 11.3 27.4 0.00 0.00 0.00 65 1010.0
20260504081556 9 360 3.2 14.5 0.00 0.00 0.00 67 1011.2
20260504050107 11 360 4.8 14.5 0.00 0.00 0.00 63 1012.7
20260504044559 11 360 6.4 19.3 0.00 0.00 0.00 63 1012.7
20260504043055 11 360 4.8 16.1 0.00 0.00 0.00 63 1012.9
20260504041601 11 360 3.2 17.7 0.00 0.00 0.00 64 1013.1
20260504040056 11 360 3.2 17.7 0.00 0.00 0.00 65 1013.3
20260504034555 10 360 3.2 12.9 0.00 0.00 0.00 66 1013.4
20260504033055 10 360 3.2 14.5 0.00 0.00 0.00 66 1013.5
20260504031558 10 360 1.6 12.9 0.00 0.00 0.00 68 1013.6
20260504030057 10 360 3.2 12.9 0.00 0.00 0.00 69 1013.7
20260504024615 10 360 3.2 9.7 0.00 0.00 0.00 69 1013.9
20260504023055 10 360 3.2 12.9 0.00 0.00 0.00 69 1014.1
20260504021557 10 360 4.8 16.1 0.00 0.00 0.00 69 1014.0
20260504020055 10 360 6.4 14.5 0.00 0.00 0.00 69 1014.0
20260504014604 10 360 6.4 16.1 0.00 0.00 0.00 70 1013.9
20260504013057 10 360 4.8 14.5 0.00 0.00 0.00 72 1014.0
20260504011607 10 360 3.2 12.9 0.00 0.00 0.00 73 1014.1
20260504010105 10 360 6.4 14.5 0.00 0.00 0.00 71 1014.1
20260504004553 10 360 4.8 12.9 0.00 0.00 0.00 69 1014.1
20260504003057 10 360 8.0 14.5 0.00 0.00 0.00 69 1013.9
20260504001552 10 360 3.2 12.9 0.00 0.00 0.00 69 1014.0
20260504000135 10 360 1.6 16.1 0.00 0.00 0.00 71 1014.0
20260503234559 9 360 8.0 16.1 0.00 0.00 0.00 74 1014.0
20260503233055 9 360 6.4 16.1 0.00 0.00 0.00 75 1013.9
20260503231555 9 360 6.4 12.9 0.00 0.00 0.00 76 1014.2
20260503230055 10 360 6.4 16.1 0.00 0.00 0.00 75 1014.5
20260503224555 10 0 3.2 9.7 0.00 0.00 0.00 75 1014.7
20260503223053 10 360 3.2 8.0 0.00 0.00 0.00 75 1015.2
20260503221559 10 360 0.0 4.8 0.00 0.00 0.00 74 1015.9
20260503220057 10 0 3.2 6.4 0.00 0.00 0.00 73 1016.0